ZHONGXING-3A

Last updated on Wed May 14 2025 00:02:46 GMT+0000 (Coordinated Universal Time)

1 60179U 24122A 25133.32866105 -.00000297 00000+0 00000+0 0 9996 2 60179 0.0333 40.6982 0001250 153.5295 257.0095 1.00270144 3304
UTC large
Height (km)
Speed (km/s)
/
Latitude / Longitude
Inclination (degrees)
Orbital Period (minutes)
Azimuth
Elevation
Range (km)
Doppler Factor

Next 0 passes for location: London (51.5072 / 0.1276)

Sorry there are no passes over London.